Location: Dover
(39.1580°N, 75.5250°W)
Time: 10:11:08
(UTC-04:00)

SeaSat 1 - Visible Passes

Search period start: 31 May 2016 00:00
Search period end: 10 June 2016 00:00
Orbit: 745 x 748 km, 108.0° (Epoch: 31 May)

Date Brightness Start Highest point End Pass type
(mag) Time Alt. Az. Time Alt. Az. Time Alt. Az.
31 May 2.6 21:52:49 23° SE 21:55:50 62° ENE 22:00:43 10° NNW visible
31 May 4.5 23:32:37 15° WSW 23:33:41 16° WSW 23:36:42 10° WNW visible
01 Jun 3.9 21:10:15 10° ESE 21:14:13 25° NE 21:18:12 10° N visible
01 Jun 3.2 22:49:46 32° SSW 22:51:29 44° WSW 22:56:13 10° NW visible
02 Jun 2.5 22:06:56 28° SE 22:09:33 69° ENE 22:14:29 10° NNW visible
02 Jun 4.6 23:46:44 14° WSW 23:47:28 14° WSW 23:50:05 10° WNW visible
03 Jun 3.8 21:24:05 11° ESE 21:27:55 27° NE 21:32:02 10° N visible
03 Jun 3.3 23:03:53 33° SSW 23:05:15 39° WSW 23:09:53 10° NW visible
04 Jun 2.4 22:21:02 33° SE 22:23:17 76° ENE 22:28:14 10° NNW visible
05 Jun 4.7 00:00:50 13° WSW 00:01:15 13° WSW 00:03:23 10° WNW visible
05 Jun 3.6 21:38:11 14° ESE 21:41:37 30° NE 21:45:52 10° N visible
05 Jun 3.4 23:17:59 32° SW 23:19:00 35° WSW 23:23:32 10° NW visible
06 Jun 4.6 20:58:03 10° ENE 21:00:13 13° NE 21:02:23 10° NNE visible
06 Jun 2.4 22:35:07 39° SSE 22:37:01 84° ENE 22:41:59 10° NNW visible
07 Jun 4.8 00:14:55 11° WSW 00:15:03 11° WSW 00:16:28 10° W visible
07 Jun 3.5 21:52:16 17° ESE 21:55:19 33° NE 21:59:41 10° N visible
07 Jun 3.5 23:32:04 31° SW 23:32:46 32° WSW 23:37:11 10° NW visible
08 Jun 4.6 21:11:22 10° ENE 21:13:53 14° NE 21:16:25 10° NNE visible
08 Jun 2.4 22:49:12 45° SSE 22:50:45 88° WSW 22:55:44 10° NNW visible
09 Jun 3.4 22:06:20 21° ESE 22:09:00 36° ENE 22:13:30 10° N visible
09 Jun 3.7 23:46:08 28° WSW 23:46:32 29° WSW 23:50:48 10° NW visible
